Location: Pordenone
(45.9640°N, 12.6580°E)
Time: 17:57:11
(UTC+02:00)

ISS - Pass Details

Date: 24 May 2021
Orbit: 417 x 422 km, 51.6° (Epoch: 18 June)

Event Time Altitude Azimuth Distance (km) Brightness Sun altitude
Rises 21:22:10 0° 284° (WNW) 2,364 1.4 -6.1°
Reaches altitude 10° 21:24:26 10° 296° (WNW) 1,501 0.6 -6.4°
Maximum altitude 21:27:27 29° 359° (N) 793 -1.9 -6.8°
Drops below altitude 10° 21:30:28 10° 62° (ENE) 1,504 -1.2 -7.2°
Sets 21:32:44 0° 74° (ENE) 2,370 -0.3 -7.5°
